Home   Weather   Ontario   Past weeks
Flag for USA

Past Weather in Ontario, California, USA — Yesterday and Last 2 Weeks

Now
84 °F

Passing clouds.


Feels Like: 81 °F
Forecast: 87 / 56 °F
Wind: 8 mph from West

Location: Ontario International Airport

Current Time: Oct 20, 2019 at 3:15:54 pm

Latest Report: Oct 20, 2019 at 1:53 pm


Visibility: 10 mi

Pressure: 29.85 "Hg

Humidity: 21%

Dew Point: 40 °F

Location of OntarioLocation

Past Weather in Ontario — Graph

°F

Ontario Temperature Yesterday

Maximum temperature yesterday: 81 °F (at 2:53 pm)
Minimum temperature yesterday: 53 °F (at 5:53 am)
Average temperature yesterday: 67 °F

High & Low Weather Summary for the Past Weeks

 TemperatureHumidityPressure
High95 °F (Oct 6, 2:53 pm)93% (Oct 9, 7:00 am)30.01 "Hg (Oct 9, 7:00 am)
Low52 °F (Oct 12, 4:53 am)2% (Oct 10, 3:53 pm)29.71 "Hg (Oct 17, 4:53 pm)
Average70 °F44%29.87 "Hg
* Reported Oct 5 1:53 pm — Oct 20 1:53 pm, Ontario. Weather by CustomWeather, © 2019

Note: Actual official high and low records may vary slightly from our data, if they occured in-between our weather recording intervals... More about our weather records

Advertising

Ontario Weather History for the Previous 24 Hours

Scroll right to see more
 ConditionsComfort  
Time TempWeatherWind HumidityBarometerVisibility
1:53 pm
Sun, Oct 20
84 °FPassing clouds.8 mph21%29.85 "Hg10 mi
12:53 pm82 °FPassing clouds.12 mph23%29.86 "Hg10 mi
11:53 am79 °FPassing clouds.7 mph26%29.88 "Hg10 mi
10:53 am74 °FPassing clouds.8 mph37%29.90 "Hg10 mi
9:53 am66 °FPassing clouds.3 mph50%29.90 "Hg10 mi
8:53 am61 °FPassing clouds.3 mph62%29.90 "Hg10 mi
7:53 am56 °FPassing clouds.No wind70%29.88 "Hg10 mi
6:53 am55 °FPassing clouds.No wind67%29.87 "Hg10 mi
5:53 am54 °FPassing clouds.No wind69%29.85 "Hg10 mi
4:53 am58 °FPassing clouds.3 mph60%29.84 "Hg10 mi
3:53 am57 °FPassing clouds.5 mph64%29.83 "Hg10 mi
2:53 am56 °FPassing clouds.3 mph65%29.83 "Hg10 mi
1:53 am58 °FPassing clouds.No wind60%29.84 "Hg10 mi
12:53 am60 °FPassing clouds.No wind58%29.83 "Hg10 mi
11:53 pm
Sat, Oct 19
62 °FPassing clouds.No wind58%29.84 "Hg10 mi
10:53 pm63 °FPassing clouds.No wind50%29.85 "Hg10 mi
9:53 pm65 °FClear.7 mph51%29.86 "Hg10 mi
8:53 pm67 °FClear.5 mph55%29.85 "Hg10 mi
7:53 pm69 °FClear.5 mph53%29.85 "Hg10 mi
6:53 pm72 °FPassing clouds.7 mph52%29.84 "Hg10 mi
5:53 pm75 °FScattered clouds.10 mph45%29.82 "Hg10 mi
4:53 pm80 °FScattered clouds.9 mph27%29.81 "Hg10 mi
3:53 pm81 °FScattered clouds.9 mph24%29.83 "Hg10 mi
Weather by CustomWeather, © 2019

See weather overview